EW2725 Weather Reports


Display with metric or nautical units.
time (UTC)temp
F
wind
direction
speed
MPH
gust
MPH
rain 1hr
in
rain 24hr
in
rain mn
in
humidity
%
barometer
mb
20260508050106 50 226 2.0 0.0 0.00 0.00 0.00 56 1100.1
20260508044610 50 226 1.0 0.0 0.00 0.00 0.00 56 1100.1
20260508044506 49 0 0.0 0.0 0.00 0.31 0.00 59 1007.6
20260508044006 49 0 0.0 0.0 0.00 0.31 0.00 58 1007.6
20260508043007 49 0 0.0 0.0 0.00 0.31 0.00 60 1007.5
20260508043004 50 226 2.0 0.0 0.00 0.00 0.49 58 1100.1
20260508042506 49 0 0.0 0.0 0.00 0.31 0.00 61 1007.5
20260508041514 49 226 1.0 0.0 0.00 0.00 0.49 59 1100.1
20260508041506 48 0 0.0 0.0 0.00 0.31 0.00 62 1007.6
20260508040506 48 0 0.0 0.0 0.00 0.31 0.00 66 1007.6
20260508040146 49 226 0.0 0.0 0.00 0.00 0.49 62 1100.1
20260508035506 47 0 0.0 0.0 0.00 0.31 0.31 70 1007.6
20260508035007 47 0 0.0 0.0 0.00 0.31 0.31 71 1007.6
20260508034640 48 226 0.0 0.0 0.00 0.00 0.49 63 1100.1
20260508034007 47 0 0.0 0.0 0.00 0.31 0.31 70 1007.5
20260508033506 46 0 0.0 0.0 0.00 0.31 0.31 70 1007.5
20260508033101 47 226 0.0 0.0 0.00 0.00 0.49 64 1100.1
20260508032506 46 0 0.0 0.0 0.00 0.31 0.31 74 1007.7
20260508031605 47 226 0.0 0.0 0.00 0.00 0.49 64 1100.1
20260508031506 46 0 0.0 0.0 0.00 0.31 0.31 75 1007.8
20260508031006 46 0 0.0 0.0 0.00 0.31 0.31 75 1007.8
20260508030136 47 226 0.0 0.0 0.00 0.00 0.49 64 1100.1
20260508030005 46 0 0.0 0.0 0.00 0.31 0.31 74 1007.9
20260508024624 48 226 0.0 0.0 0.00 0.00 0.49 62 1100.1
20260508024006 47 0 0.0 0.0 0.00 0.31 0.31 69 1007.7
20260508023506 48 0 0.0 0.0 0.00 0.31 0.31 69 1007.7
20260508023115 49 226 0.0 0.0 0.00 0.00 0.49 58 1100.1
20260508023006 48 0 0.0 0.0 0.00 0.31 0.31 68 1007.7
20260508022506 48 0 0.0 0.0 0.00 0.31 0.31 66 1007.8
20260508021502 51 226 0.0 0.0 0.00 0.00 0.49 56 1100.1
20260508021006 49 0 0.0 0.0 0.00 0.31 0.31 62 1007.8
20260508020135 51 226 0.0 0.0 0.00 0.00 0.49 55 1100.1
20260508020006 50 0 0.0 0.0 0.00 0.31 0.31 61 1007.6
20260508015506 50 0 0.0 0.0 0.00 0.31 0.31 60 1007.6
20260508015006 51 0 0.0 0.0 0.00 0.31 0.31 60 1007.7
20260508014631 52 226 1.0 0.0 0.00 0.00 0.49 55 1100.1
20260508014506 51 0 0.0 0.0 0.00 0.31 0.31 56 1007.6
20260508013127 52 226 1.0 0.0 0.00 0.00 0.49 59 1100.1
20260508013006 50 0 0.0 0.0 0.00 0.31 0.31 61 1007.4
20260508011632 52 214 0.0 0.0 0.00 0.00 0.49 57 1100.1
20260508011006 49 0 0.0 0.0 0.00 0.31 0.31 65 1007.2
20260508010506 49 0 0.0 0.0 0.00 0.31 0.31 72 1007.2
20260508010139 51 214 0.0 0.0 0.00 0.00 0.49 61 1100.1
20260508004642 52 214 0.0 0.0 0.00 0.00 0.49 62 1100.1
20260508004507 50 0 0.0 0.0 0.00 0.32 0.31 75 1007.1
20260508003506 50 0 0.0 0.0 0.00 0.33 0.31 77 1006.7
20260508003010 52 214 0.0 0.0 0.00 0.00 0.49 64 1100.1
20260508002506 50 0 0.0 0.0 0.00 0.33 0.31 78 1006.2
20260508002006 51 0 0.0 0.0 0.00 0.34 0.31 79 1006.1
20260508001504 52 214 0.0 0.0 0.00 0.00 0.49 69 1100.1
20260508001006 52 0 0.0 0.0 0.00 0.35 0.31 81 1006.1
20260508000008 54 214 0.0 0.0 0.00 0.00 0.49 75 1100.1
20260507235006 53 0 0.0 0.0 0.00 0.37 0.31 80 1005.9
20260507234615 54 214 0.0 0.0 0.00 0.00 0.49 75 1100.1
20260507234506 53 0 0.0 0.0 0.00 0.39 0.31 80 1006.0
20260507233507 54 0 0.0 0.0 0.00 0.41 0.31 79 1005.9
20260507233116 56 214 1.0 0.0 0.00 0.00 0.49 72 1100.1
20260507233006 55 0 0.0 0.0 0.00 0.42 0.31 78 1005.9
20260507231620 57 182 0.0 0.0 0.00 0.00 0.49 70 1100.1
20260507231506 56 0 0.0 0.0 0.00 0.43 0.31 76 1005.7
20260507230059 57 182 1.0 0.0 0.00 0.00 0.49 68 1100.1
20260507230006 56 0 0.0 0.0 0.00 0.46 0.31 73 1005.5
20260507225506 57 0 0.0 0.0 0.00 0.46 0.31 72 1005.4
20260507225007 57 0 0.0 0.0 0.00 0.46 0.31 71 1005.3
20260507224617 57 182 1.0 0.0 0.00 0.00 0.49 68 1100.1
20260507224006 57 0 0.0 0.0 0.00 0.47 0.31 70 1005.3
20260507223114 58 182 1.0 0.0 0.00 0.00 0.49 67 1100.1
20260507222006 58 0 0.0 0.0 0.00 0.47 0.31 68 1005.1
20260507221518 58 103 2.0 0.0 0.00 0.00 0.49 66 1100.1
20260507220505 58 0 0.0 0.0 0.00 0.47 0.31 66 1005.1
20260507220123 60 68 1.0 0.0 0.00 0.00 0.49 64 1100.1
20260507215006 59 0 0.0 0.0 0.00 0.47 0.31 63 1004.9
20260507214627 59 170 5.0 0.0 0.00 0.00 0.49 61 1100.1
20260507213119 61 234 3.0 0.0 0.00 0.00 0.49 59 1100.1
20260507212005 63 0 0.0 0.0 0.00 0.47 0.31 52 1004.6
20260507211621 62 235 2.0 0.0 0.00 0.00 0.49 56 1100.1
20260507211506 62 0 0.0 0.0 0.00 0.47 0.31 56 1004.7
20260507210505 62 0 0.0 0.0 0.00 0.47 0.31 59 1004.7
20260507210114 61 215 2.0 0.0 0.00 0.00 0.49 59 1100.1
20260507210005 62 0 0.0 0.0 0.00 0.47 0.31 56 1004.6
20260507205505 62 0 0.0 0.0 0.00 0.47 0.31 56 1004.6
20260507205006 63 0 0.0 0.0 0.00 0.47 0.31 57 1004.5
20260507204613 61 177 4.0 0.0 0.00 0.00 0.49 59 1100.1
20260507204505 63 0 0.0 0.0 0.00 0.47 0.31 57 1004.6
20260507203106 60 175 4.0 0.0 0.00 0.00 0.49 62 1100.1
20260507202505 63 0 0.0 0.0 0.00 0.47 0.31 60 1004.7
20260507201601 60 121 4.0 0.0 0.00 0.00 0.49 60 1100.1
20260507201505 63 0 0.0 0.0 0.00 0.47 0.31 59 1004.5
20260507200106 60 221 4.0 0.0 0.00 0.00 0.49 63 1100.1
20260507200005 63 0 0.0 0.0 0.00 0.47 0.31 62 1004.6
20260507195505 63 0 0.0 0.0 0.00 0.47 0.31 63 1004.7
20260507194518 60 204 5.0 0.0 0.00 0.00 0.49 65 1100.1
20260507193505 62 0 0.0 0.0 0.00 0.47 0.31 67 1005.2
20260507193114 59 158 7.0 0.0 0.00 0.00 0.49 68 1100.1
20260507191612 59 171 5.0 0.0 0.00 0.00 0.49 70 1100.1
20260507190116 58 171 6.0 0.0 0.00 0.00 0.49 71 1100.1
20260507184622 58 190 7.0 0.0 0.00 0.00 0.49 70 1100.1
20260507184006 63 0 0.0 0.0 0.00 0.47 0.31 67 1006.0
20260507183505 63 0 0.0 0.0 0.00 0.47 0.31 68 1006.1
20260507183117 60 221 5.0 0.0 0.00 0.00 0.49 68 1100.1
20260507183006 63 0 0.0 0.0 0.00 0.47 0.31 66 1006.1
20260507182505 63 0 0.0 0.0 0.00 0.47 0.31 68 1006.2
20260507181615 58 155 6.0 0.0 0.00 0.00 0.49 68 1100.1
20260507181505 61 0 0.0 0.0 0.00 0.47 0.31 67 1006.2
20260507181005 62 0 0.0 0.0 0.00 0.47 0.31 68 1006.3
20260507180505 62 0 0.0 0.0 0.00 0.47 0.31 67 1006.3
20260507180123 59 186 4.0 0.0 0.00 0.00 0.49 70 1100.1
20260507175506 62 0 0.0 0.0 0.00 0.47 0.31 67 1006.3
20260507175005 62 0 0.0 0.0 0.00 0.47 0.31 68 1006.4
20260507174612 60 216 5.0 0.0 0.00 0.00 0.49 67 1100.1
20260507174505 62 0 0.0 0.0 0.00 0.47 0.31 68 1006.4
20260507173024 59 216 3.0 0.0 0.00 0.00 0.49 69 1100.1
20260507173006 61 0 0.0 0.0 0.00 0.47 0.31 69 1006.5
20260507171634 58 216 4.0 0.0 0.00 0.00 0.49 67 1100.1
20260507171505 61 0 0.0 0.0 0.00 0.47 0.31 66 1006.7
20260507171006 60 0 0.0 0.0 0.00 0.47 0.31 66 1006.7
20260507170505 61 0 0.0 0.0 0.00 0.47 0.31 63 1006.8
20260507170136 60 269 3.0 0.0 0.00 0.00 0.49 59 1100.1
20260507170005 61 0 0.0 0.0 0.00 0.47 0.31 59 1006.8
20260507165006 61 0 0.0 0.0 0.00 0.47 0.31 60 1006.9
20260507164629 60 269 2.0 0.0 0.00 0.00 0.49 60 1100.1
20260507164005 62 0 0.0 0.0 0.00 0.47 0.31 61 1006.8
20260507163506 61 0 0.0 0.0 0.00 0.47 0.31 67 1006.8
20260507163132 58 304 4.0 0.0 0.00 0.00 0.49 62 1100.1
20260507163006 59 0 0.0 0.0 0.00 0.47 0.31 65 1007.0
20260507162006 62 0 0.0 0.0 0.00 0.47 0.31 61 1007.0
20260507161626 58 5 4.0 0.0 0.00 0.00 0.49 64 1100.1
20260507160119 58 338 4.0 0.0 0.00 0.00 0.49 64 1100.1
20260507154616 57 5 4.0 0.0 0.00 0.00 0.49 66 1100.1
20260507154505 59 0 0.0 0.0 0.00 0.47 0.31 68 1007.5
20260507154006 60 0 0.0 0.0 0.00 0.47 0.31 64 1007.6
20260507153505 61 0 0.0 0.0 0.00 0.47 0.31 66 1007.8
20260507153110 56 333 5.0 0.0 0.00 0.00 0.49 67 1100.1
20260507153006 61 0 0.0 0.0 0.00 0.47 0.31 69 1007.8
20260507151614 56 320 6.0 0.0 0.00 0.00 0.49 68 1100.1
20260507151006 58 0 0.0 0.0 0.00 0.47 0.31 73 1007.8
20260507150114 55 324 5.0 0.0 0.00 0.00 0.49 70 1100.1
20260507150006 57 0 0.0 0.0 0.00 0.47 0.31 76 1007.8
20260507144515 54 295 4.0 0.0 0.00 0.00 0.49 75 1100.1
20260507144006 54 0 0.0 0.0 0.00 0.47 0.31 81 1007.9
20260507143506 54 0 0.0 0.0 0.00 0.47 0.31 83 1007.7
20260507143013 54 283 3.0 0.0 0.00 0.00 0.49 77 1100.1
20260507142505 53 0 0.0 0.0 0.00 0.47 0.31 87 1008.0
20260507141620 53 360 3.0 0.0 0.00 0.00 0.49 80 1100.1
20260507141505 52 0 0.0 0.0 0.00 0.47 0.31 91 1008.0
20260507140505 51 0 0.0 0.0 0.00 0.47 0.31 94 1008.1
20260507140130 52 276 5.0 0.0 0.00 0.00 0.49 82 1100.1
20260507140005 51 0 0.0 0.0 0.00 0.47 0.31 95 1008.2
20260507135505 50 0 0.0 0.0 0.00 0.47 0.31 95 1008.1
20260507134520 50 288 4.0 0.0 0.00 0.00 0.49 84 1100.1
20260507133505 49 0 0.0 0.0 0.00 0.47 0.31 96 1008.2
20260507133116 50 286 2.0 0.0 0.00 0.00 0.49 86 1100.1
20260507133005 49 0 0.0 0.0 0.00 0.47 0.31 95 1008.3
20260507132505 49 0 0.0 0.0 0.01 0.47 0.31 95 1008.1
20260507132005 49 0 0.0 0.0 0.01 0.47 0.31 96 1007.9
20260507131623 49 360 2.0 0.0 0.00 0.00 0.49 86 1100.1
20260507131505 49 0 0.0 0.0 0.01 0.47 0.31 96 1008.1
20260507130505 49 0 0.0 0.0 0.01 0.47 0.31 96 1008.0
20260507130111 49 315 2.0 0.0 0.00 0.00 0.49 88 1100.1
20260507130005 49 0 0.0 0.0 0.01 0.47 0.31 96 1007.9
20260507125505 49 0 0.0 0.0 0.01 0.47 0.31 96 1008.0
20260507125006 48 0 0.0 0.0 0.01 0.47 0.31 95 1008.3
20260507124636 49 315 1.0 0.0 0.00 0.00 0.49 89 1100.1
20260507124505 48 0 0.0 0.0 0.01 0.47 0.31 95 1008.0
20260507124006 48 0 0.0 0.0 0.02 0.47 0.31 96 1008.2
20260507123128 48 310 2.0 0.0 0.00 0.00 0.48 90 1100.1
20260507122005 48 0 0.0 0.0 0.02 0.46 0.30 95 1008.3
20260507121624 48 310 1.0 0.0 0.00 0.00 0.47 90 1100.1
20260507121005 48 358 0.0 0.0 0.02 0.46 0.30 95 1008.1
20260507120122 48 310 1.0 0.0 0.00 0.00 0.46 90 1100.1
20260507120006 48 359 0.0 0.0 0.03 0.46 0.30 95 1008.1
20260507115006 48 358 0.0 0.0 0.03 0.46 0.30 95 1008.1
20260507114612 48 32 2.0 0.0 0.00 0.00 0.46 90 1100.1
20260507114006 48 0 0.0 0.0 0.03 0.45 0.29 95 1008.1
20260507113002 48 283 2.0 0.0 0.00 0.00 0.44 90 1100.1
20260507112505 48 0 0.0 0.0 0.02 0.44 0.28 95 1008.3
20260507112006 49 0 0.0 0.0 0.02 0.44 0.28 95 1008.2
20260507111559 49 294 3.0 0.0 0.00 0.00 0.42 90 1100.1
20260507111005 49 0 0.0 0.0 0.03 0.44 0.28 95 1007.4
20260507110008 49 328 4.0 0.0 0.00 0.00 0.42 90 1100.1
20260507110005 49 0 0.0 0.0 0.03 0.43 0.27 95 1007.4
20260507104559 49 312 4.0 0.0 0.00 0.00 0.41 91 1100.1
20260507104506 49 0 0.0 0.0 0.02 0.42 0.26 95 1007.4
20260507104005 49 0 0.0 0.0 0.02 0.42 0.26 95 1007.5
20260507103505 49 0 0.0 0.0 0.02 0.42 0.26 95 1007.4
20260507103112 49 273 3.0 0.0 0.00 0.00 0.39 91 1100.1
20260507103006 49 0 0.0 0.0 0.03 0.42 0.26 95 1007.4
20260507102505 49 0 0.0 0.0 0.04 0.42 0.26 95 1007.0
20260507101604 49 312 4.0 0.0 0.00 0.00 0.38 91 1100.1
20260507101506 49 0 0.0 0.0 0.03 0.41 0.25 95 1007.2
20260507100141 49 313 4.0 0.0 0.00 0.00 0.37 91 1100.1
20260507100005 49 0 0.0 0.0 0.04 0.40 0.24 95 1007.2
20260507095505 50 0 0.0 0.0 0.04 0.40 0.24 95 1007.2
20260507095006 50 0 0.0 0.0 0.04 0.40 0.24 95 1006.8
20260507094616 50 340 4.0 0.0 0.00 0.00 0.36 91 1100.1
20260507093114 51 246 4.0 0.0 0.00 0.00 0.35 91 1100.1
20260507092505 52 358 0.0 0.0 0.08 0.38 0.22 95 1007.1
20260507092006 52 0 0.0 0.0 0.14 0.38 0.22 95 1006.9
20260507091503 52 246 5.0 0.0 0.00 0.00 0.33 92 1100.1
20260507091006 52 0 0.0 0.0 0.21 0.37 0.21 95 1006.4
20260507090139 52 246 2.0 0.0 0.00 0.00 0.31 92 1100.1
20260507085506 53 0 0.0 0.0 0.20 0.36 0.20 95 1006.8
20260507084629 53 246 5.0 0.0 0.00 0.00 0.28 92 1100.1
20260507084505 54 0 0.0 0.0 0.19 0.35 0.19 95 1006.3
20260507083132 54 246 2.0 0.0 0.00 0.00 0.23 92 1100.1
20260507082005 53 359 0.0 0.0 0.08 0.24 0.08 95 1006.9
20260507081502 53 223 1.0 0.0 0.00 0.00 0.04 92 1100.1
20260507080014 53 223 1.0 0.0 0.00 0.00 0.00 92 1100.1
20260507080005 53 359 0.0 0.0 0.00 0.16 0.00 95 1005.8
20260507074523 53 223 1.0 0.0 0.00 0.00 0.00 92 1100.1
20260507074505 53 358 0.0 0.0 0.00 0.16 0.00 95 1005.7
20260507073014 53 223 1.0 0.0 0.00 0.00 0.00 92 1100.1
20260507073005 54 359 0.0 0.0 0.00 0.16 0.00 95 1005.9
20260507071620 53 223 2.0 0.0 0.00 0.00 0.00 92 1100.1
20260507070108 54 223 1.0 0.0 0.00 0.00 0.00 92 1100.1
20260507070010 54 0 0.0 0.0 0.00 0.16 0.00 95 1006.0
20260507065505 54 0 0.0 0.0 0.00 0.16 0.00 95 1006.0
20260507065005 54 0 0.0 0.0 0.00 0.16 0.00 95 1006.0
20260507064559 54 223 0.0 0.0 0.00 0.00 0.00 92 1100.1
20260507064005 54 0 0.0 0.0 0.00 0.16 0.00 95 1005.8
20260507063136 53 223 1.0 0.0 0.00 0.00 0.00 92 1100.1
20260507063005 54 0 0.0 0.0 0.00 0.16 0.00 95 1005.9
20260507061624 53 223 1.0 0.0 0.00 0.00 0.00 91 1100.1
20260507061505 53 358 0.0 0.0 0.00 0.16 0.00 95 1006.4
20260507061006 53 0 0.0 0.0 0.00 0.16 0.00 95 1006.2
20260507060505 53 358 0.0 0.0 0.00 0.16 0.00 95 1006.4
20260507060014 53 223 1.0 0.0 0.00 0.00 0.00 91 1100.1
20260507060005 53 0 0.0 0.0 0.00 0.16 0.00 95 1006.3
20260507055505 53 357 0.0 0.0 0.00 0.16 0.00 95 1006.4
20260507055006 53 0 0.0 0.0 0.00 0.16 0.00 95 1006.3
20260507054609 53 223 1.0 0.0 0.00 0.00 0.00 91 1100.1
20260507054505 53 0 0.0 0.0 0.00 0.16 0.00 95 1006.4
20260507054006 53 0 0.0 0.0 0.00 0.16 0.00 95 1006.6
20260507053505 53 358 0.0 0.0 0.00 0.16 0.00 95 1006.7
20260507053010 53 223 2.0 0.0 0.00 0.00 0.00 91 1100.1
20260507051600 54 223 2.0 0.0 0.00 0.00 0.00 91 1100.1
20260507051504 54 0 0.0 0.0 0.00 0.16 0.00 95 1006.9
20260507051005 54 358 0.0 0.0 0.00 0.16 0.00 95 1006.9